KC3BHK-2 Weather Reports


Display with metric or nautical units.
time (UTC)temp
F
wind
direction
speed
MPH
gust
MPH
rain 1hr
in
rain 24hr
in
rain mn
in
humidity
%
barometer
mb
20260508193643 72 280 7.0 18.0 0.00 0.00 0.00
20260508193138 70 239 15.0 16.0 0.00 0.00 0.00
20260508192632 70 240 14.0 15.0 0.00 0.00 0.00
20260508192127 70 257 7.0 17.0 0.00 0.00 0.00
20260508191619 68 187 10.0 15.0 0.00 0.00 0.00
20260508191115 68 183 9.0 14.0 0.00 0.00 0.00
20260508190610 67 207 10.0 14.0 0.00 0.00 0.00
20260508190105 67 198 13.0 17.0 0.00 0.00 0.00
20260508185055 72 236 15.0 19.0 0.00 0.00 0.00
20260508184547 68 224 13.0 21.0 0.00 0.00 0.00
20260508184042 67 249 9.0 15.0 0.00 0.00 0.00
20260508183538 71 214 13.0 17.0 0.00 0.00 0.00
20260508183033 69 262 15.0 26.0 0.00 0.00 0.00
20260508182528 69 256 12.0 21.0 0.00 0.00 0.00
20260508182023 70 238 13.0 19.0 0.00 0.00 0.00
20260508181516 68 288 10.0 21.0 0.00 0.00 0.00
20260508181010 72 266 10.0 17.0 0.00 0.00 0.00
20260508180505 72 274 10.0 19.0 0.00 0.00 0.00
20260508180000 69 219 12.0 19.0 0.00 0.00 0.00
20260508174951 68 274 9.0 17.0 0.00 0.00 0.00
20260508174443 69 224 15.0 16.0 0.00 0.00 0.00
20260508173939 70 243 11.0 16.0 0.00 0.00 0.00
20260508173433 67 242 14.0 14.0 0.00 0.00 0.00
20260508172928 69 232 9.0 15.0 0.00 0.00 0.00
20260508172424 69 245 10.0 21.0 0.00 0.00 0.00
20260508171919 70 277 11.0 13.0 0.00 0.00 0.00
20260508171412 67 210 7.0 17.0 0.00 0.00 0.00
20260508170907 69 228 8.0 21.0 0.00 0.00 0.00
20260508170402 67 283 9.0 20.0 0.00 0.00 0.00
20260508165858 67 253 12.0 16.0 0.00 0.00 0.00
20260508165353 66 252 14.0 20.0 0.00 0.00 0.00
20260508164848 69 239 11.0 14.0 0.00 0.00 0.00
20260508164340 67 243 8.0 15.0 0.00 0.00 0.00
20260508163836 67 297 9.0 13.0 0.00 0.00 0.00
20260508163331 67 252 9.0 12.0 0.00 0.00 0.00
20260508162826 67 200 6.0 21.0 0.00 0.00 0.00
20260508161817 65 236 12.0 21.0 0.00 0.00 0.00
20260508161309 68 245 14.0 20.0 0.00 0.00 0.00
20260508160805 68 172 14.0 18.0 0.00 0.00 0.00
20260508160300 66 233 15.0 14.0 0.00 0.00 0.00
20260508155755 67 180 10.0 19.0 0.00 0.00 0.00
20260508154746 65 246 9.0 20.0 0.00 0.00 0.00
20260508154238 65 238 14.0 21.0 0.00 0.00 0.00
20260508153733 66 236 13.0 22.0 0.00 0.00 0.00
20260508153228 66 221 14.0 13.0 0.00 0.00 0.00
20260508152723 65 205 7.0 20.0 0.00 0.00 0.00
20260508152218 65 248 12.0 19.0 0.00 0.00 0.00
20260508151714 64 205 9.0 16.0 0.00 0.00 0.00
20260508151206 64 245 9.0 18.0 0.00 0.00 0.00
20260508150701 63 221 9.0 18.0 0.00 0.00 0.00
20260508150157 64 194 10.0 15.0 0.00 0.00 0.00
20260508145652 64 273 11.0 18.0 0.00 0.00 0.00
20260508145147 62 259 12.0 20.0 0.00 0.00 0.00
20260508144642 64 215 17.0 20.0 0.00 0.00 0.00
20260508144134 64 246 10.0 15.0 0.00 0.00 0.00
20260508143629 63 270 9.0 13.0 0.00 0.00 0.00
20260508143124 63 159 9.0 16.0 0.00 0.00 0.00
20260508142619 63 215 6.0 15.0 0.00 0.00 0.00
20260508142114 61 233 12.0 14.0 0.00 0.00 0.00
20260508141610 62 253 8.0 14.0 0.00 0.00 0.00
20260508141102 62 225 7.0 11.0 0.00 0.00 0.00
20260508140557 62 270 8.0 11.0 0.00 0.00 0.00
20260508140052 61 193 6.0 13.0 0.00 0.00 0.00
20260508135547 61 256 8.0 14.0 0.00 0.00 0.00
20260508135043 60 246 7.0 13.0 0.00 0.00 0.00
20260508134030 59 246 7.0 10.0 0.00 0.00 0.00
20260508133525 60 191 8.0 11.0 0.00 0.00 0.00
20260508133020 58 240 9.0 12.0 0.00 0.00 0.00
20260508132516 58 197 6.0 10.0 0.00 0.00 0.00
20260508132011 58 194 8.0 13.0 0.00 0.00 0.00
20260508131506 58 242 9.0 13.0 0.00 0.00 0.00
20260508130958 58 222 11.0 10.0 0.00 0.00 0.00
20260508130453 56 197 8.0 11.0 0.00 0.00 0.00
20260508125948 56 243 7.0 10.0 0.00 0.00 0.00
20260508125444 56 239 7.0 9.0 0.00 0.00 0.00
20260508124939 56 205 7.0 8.0 0.00 0.00 0.00
20260508124434 55 201 6.0 9.0 0.00 0.00 0.00
20260508123926 55 255 6.0 9.0 0.00 0.00 0.00
20260508123421 54 212 6.0 9.0 0.00 0.00 0.00
20260508122916 53 231 7.0 9.0 0.00 0.00 0.00
20260508122411 53 232 7.0 9.0 0.00 0.00 0.00
20260508121906 54 217 4.0 8.0 0.00 0.00 0.00
20260508121401 53 191 4.0 8.0 0.00 0.00 0.00
20260508120854 54 198 5.0 8.0 0.00 0.00 0.00
20260508120349 53 252 7.0 9.0 0.00 0.00 0.00
20260508115843 52 210 7.0 10.0 0.00 0.00 0.00
20260508115338 51 141 3.0 7.0 0.00 0.00 0.00
20260508114833 49 203 3.0 6.0 0.00 0.00 0.00
20260508114328 47 169 1.0 0.0 0.00 0.00 0.00
20260508113819 44 191 0.0 0.0 0.00 0.00 0.00
20260508113314 44 191 0.0 0.0 0.00 0.00 0.00
20260508112306 42 191 0.0 0.0 0.00 0.00 0.00
20260508111759 41 191 0.0 0.0 0.00 0.00 0.00
20260508111254 41 191 0.0 0.0 0.00 0.00 0.00
20260508110746 40 191 0.0 0.0 0.00 0.00 0.00
20260508110241 39 191 0.0 0.0 0.00 0.00 0.00
20260508105736 38 191 0.0 0.0 0.00 0.00 0.00
20260508105231 37 191 0.0 0.0 0.00 0.00 0.00
20260508104725 38 191 0.0 0.0 0.00 0.00 0.00
20260508103712 37 191 0.0 0.0 0.00 0.00 0.00
20260508103207 37 191 0.0 0.0 0.00 0.00 0.00
20260508102702 37 191 0.0 0.0 0.00 0.00 0.00
20260508102156 38 191 0.0 0.0 0.00 0.00 0.00
20260508101651 36 191 0.0 0.0 0.00 0.00 0.00
20260508100638 36 191 0.0 0.0 0.00 0.00 0.00
20260508100133 38 191 0.0 0.0 0.00 0.00 0.00
20260508095628 38 191 0.0 0.0 0.00 0.00 0.00
20260508095123 37 191 0.0 0.0 0.00 0.00 0.00
20260508094617 38 191 0.0 0.0 0.00 0.00 0.00
20260508094112 38 191 0.0 0.0 0.00 0.00 0.00
20260508093604 38 191 0.0 0.0 0.00 0.00 0.00
20260508093059 39 191 0.0 0.0 0.00 0.00 0.00
20260508092554 38 191 0.0 0.0 0.00 0.00 0.00
20260508091542 38 191 0.0 0.0 0.00 0.00 0.00
20260508091037 39 191 0.0 0.0 0.00 0.00 0.00
20260508090024 39 191 0.0 0.0 0.00 0.00 0.00
20260508085519 40 191 0.0 0.0 0.00 0.00 0.00
20260508085013 41 191 0.0 1.0 0.00 0.00 0.00
20260508084508 41 191 0.0 2.0 0.00 0.00 0.00
20260508084003 43 132 0.0 2.0 0.00 0.00 0.00
20260508083454 42 166 0.0 2.0 0.00 0.00 0.00
20260508082949 42 215 2.0 2.0 0.00 0.00 0.00
20260508082444 43 70 0.0 2.0 0.00 0.00 0.00
20260508081939 42 45 0.0 0.0 0.00 0.00 0.00
20260508081434 43 45 0.0 0.0 0.00 0.00 0.00
20260508080929 42 45 0.0 3.0 0.00 0.00 0.00
20260508080421 43 87 2.0 2.0 0.00 0.00 0.00
20260508075916 43 330 0.0 0.0 0.00 0.00 0.00
20260508075411 43 330 0.0 0.0 0.00 0.00 0.00
20260508074906 45 330 0.0 0.0 0.00 0.00 0.00
20260508074401 44 330 0.0 0.0 0.00 0.00 0.00
20260508073856 45 330 0.0 0.0 0.00 0.00 0.00
20260508072843 45 330 0.0 0.0 0.00 0.00 0.00
20260508072338 46 330 0.0 2.0 0.00 0.00 0.00
20260508071833 46 11 1.0 2.0 0.00 0.00 0.00
20260508071328 47 293 0.0 3.0 0.00 0.00 0.00
20260508070822 48 281 0.0 7.0 0.00 0.00 0.00
20260508070314 49 14 0.0 5.0 0.00 0.00 0.00
20260508065809 48 312 3.0 4.0 0.00 0.00 0.00
20260508065306 49 328 1.0 6.0 0.00 0.00 0.00
20260508064759 49 62 1.0 7.0 0.00 0.00 0.00
20260508064254 50 285 0.0 7.0 0.00 0.00 0.00
20260508063749 49 301 1.0 8.0 0.00 0.00 0.00
20260508063240 50 20 2.0 7.0 0.00 0.00 0.00
20260508062735 49 336 3.0 7.0 0.00 0.00 0.00
20260508062230 51 333 2.0 9.0 0.00 0.00 0.00
20260508061725 51 300 8.0 8.0 0.00 0.00 0.00
20260508061221 51 267 4.0 11.0 0.00 0.00 0.00
20260508060716 52 271 5.0 9.0 0.00 0.00 0.00
20260508060208 50 302 1.0 8.0 0.00 0.00 0.00
20260508055702 52 239 1.0 7.0 0.00 0.00 0.00
20260508055157 52 283 6.0 8.0 0.00 0.00 0.00
20260508054652 51 343 1.0 8.0 0.00 0.00 0.00
20260508054147 51 274 3.0 7.0 0.00 0.00 0.00
20260508053642 52 284 2.0 8.0 0.00 0.00 0.00
20260508053134 52 290 8.0 8.0 0.00 0.00 0.00
20260508052629 52 271 7.0 8.0 0.00 0.00 0.00
20260508051619 54 315 6.0 9.0 0.00 0.00 0.00
20260508051114 54 297 4.0 10.0 0.00 0.00 0.00
20260508050609 53 287 6.0 9.0 0.00 0.00 0.00
20260508045556 54 311 4.0 8.0 0.00 0.00 0.00
20260508045051 54 284 6.0 9.0 0.00 0.00 0.00
20260508044545 53 281 8.0 8.0 0.00 0.00 0.00
20260508044040 54 302 3.0 12.0 0.00 0.00 0.00
20260508043534 54 318 6.0 10.0 0.00 0.00 0.00
20260508043027 54 301 7.0 10.0 0.00 0.00 0.00
20260508042522 54 304 4.0 10.0 0.00 0.00 0.00
20260508042017 54 277 6.0 11.0 0.00 0.00 0.00
20260508041512 54 276 3.0 10.0 0.00 0.00 0.00
20260508041007 55 285 6.0 8.0 0.00 0.00 0.00
20260508040502 55 291 6.0 10.0 0.00 0.00 0.00
20260508034945 56 271 5.0 12.0 0.00 0.00 0.00
20260508034440 54 294 6.0 12.0 0.00 0.00 0.00
20260508033935 55 263 4.0 10.0 0.00 0.00 0.00
20260508033430 54 294 5.0 9.0 0.00 0.00 0.00
20260508032921 53 297 3.0 9.0 0.00 0.00 0.00
20260508032417 52 283 7.0 7.0 0.00 0.00 0.00
20260508031912 51 291 3.0 5.0 0.00 0.00 0.00
20260508031407 50 293 4.0 3.0 0.00 0.00 0.00
20260508030902 50 113 0.0 2.0 0.00 0.00 0.00
20260508030357 50 143 1.0 2.0 0.00 0.00 0.00
20260508025849 52 215 1.0 4.0 0.00 0.00 0.00
20260508025345 52 200 2.0 5.0 0.00 0.00 0.00
20260508024839 52 146 0.0 6.0 0.00 0.00 0.00
20260508024334 53 231 4.0 4.0 0.00 0.00 0.00
20260508023829 52 231 2.0 5.0 0.00 0.00 0.00
20260508023324 52 212 2.0 5.0 0.00 0.00 0.00
20260508022816 53 169 4.0 5.0 0.00 0.00 0.00
20260508022311 53 131 0.0 0.0 0.00 0.00 0.00
20260508021806 54 131 0.0 3.0 0.00 0.00 0.00
20260508021301 55 148 2.0 3.0 0.00 0.00 0.00
20260508020757 55 180 3.0 5.0 0.00 0.00 0.00
20260508020252 56 248 4.0 5.0 0.00 0.00 0.00
20260508015744 56 250 3.0 5.0 0.00 0.00 0.00
20260508015239 57 245 4.0 5.0 0.00 0.00 0.00
20260508014735 56 238 5.0 5.0 0.00 0.00 0.00
20260508014230 57 260 0.0 5.0 0.00 0.00 0.00
20260508013725 57 233 3.0 5.0 0.00 0.00 0.00
20260508013220 57 259 3.0 6.0 0.00 0.00 0.00
20260508012712 57 232 3.0 5.0 0.00 0.00 0.00
20260508011702 58 224 2.0 6.0 0.00 0.00 0.00
20260508011158 58 238 3.0 6.0 0.00 0.00 0.00
20260508010653 58 225 5.0 8.0 0.00 0.00 0.00
20260508010148 58 211 6.0 7.0 0.00 0.00 0.00
20260508005640 60 248 6.0 10.0 0.00 0.00 0.00
20260508005136 60 217 6.0 10.0 0.00 0.00 0.00
20260508004631 60 257 5.0 5.0 0.00 0.00 0.00
20260508004126 59 246 4.0 6.0 0.00 0.00 0.00
20260508003116 58 169 2.0 0.0 0.00 0.00 0.00
20260508002609 59 156 0.0 4.0 0.00 0.00 0.00
20260508002104 60 156 1.0 4.0 0.00 0.00 0.00
20260508001558 60 242 0.0 3.0 0.00 0.00 0.00
20260508001053 59 159 0.0 3.0 0.00 0.00 0.00
20260508000549 59 174 2.0 0.0 0.00 0.00 0.00
20260508000044 60 236 0.0 0.0 0.00 0.00 0.00
20260507235536 60 236 0.0 0.0 0.00 0.00 0.00
20260507235032 60 236 0.0 0.0 0.00 0.00 0.00
20260507234527 61 236 0.0 2.0 0.00 0.00 0.00
20260507234022 62 236 0.0 4.0 0.00 0.00 0.00
20260507233517 62 274 4.0 4.0 0.00 0.00 0.00
20260507233013 63 269 2.0 4.0 0.00 0.00 0.00
20260507232505 62 285 2.0 4.0 0.00 0.00 0.00
20260507232000 64 262 2.0 3.0 0.00 0.00 0.00
20260507231455 64 248 2.0 4.0 0.00 0.00 0.00
20260507230951 64 236 3.0 4.0 0.00 0.00 0.00
20260507230446 63 225 3.0 4.0 0.00 0.00 0.00
20260507225941 65 200 2.0 4.0 0.00 0.00 0.00
20260507225433 64 228 2.0 4.0 0.00 0.00 0.00
20260507224423 66 150 0.0 5.0 0.00 0.00 0.00
20260507223919 66 204 1.0 6.0 0.00 0.00 0.00
20260507223414 68 262 3.0 5.0 0.00 0.00 0.00
20260507222909 70 274 0.0 5.0 0.00 0.00 0.00
20260507222402 71 330 3.0 10.0 0.00 0.00 0.00
20260507221857 71 328 1.0 8.0 0.00 0.00 0.00
20260507221352 70 271 5.0 4.0 0.00 0.00 0.00
20260507220848 71 197 2.0 3.0 0.00 0.00 0.00
20260507220342 72 212 0.0 5.0 0.00 0.00 0.00
20260507215837 70 257 2.0 3.0 0.00 0.00 0.00
20260507215330 69 208 2.0 7.0 0.00 0.00 0.00
20260507214825 71 264 5.0 7.0 0.00 0.00 0.00
20260507214321 74 44 4.0 3.0 0.00 0.00 0.00
20260507213816 73 330 0.0 5.0 0.00 0.00 0.00
20260507213311 73 231 0.0 6.0 0.00 0.00 0.00
20260507212804 73 53 1.0 5.0 0.00 0.00 0.00
20260507212257 72 27 1.0 6.0 0.00 0.00 0.00
20260507211752 72 21 2.0 6.0 0.00 0.00 0.00
20260507211248 73 350 2.0 6.0 0.00 0.00 0.00
20260507210743 70 208 4.0 7.0 0.00 0.00 0.00
20260507210238 73 180 4.0 5.0 0.00 0.00 0.00
20260507205734 74 79 1.0 4.0 0.00 0.00 0.00
20260507205226 73 305 0.0 9.0 0.00 0.00 0.00
20260507204721 74 69 0.0 4.0 0.00 0.00 0.00
20260507204217 71 307 3.0 0.0 0.00 0.00 0.00
20260507203712 73 10 0.0 7.0 0.00 0.00 0.00
20260507203208 73 66 3.0 9.0 0.00 0.00 0.00
20260507202703 75 15 3.0 6.0 0.00 0.00 0.00
20260507201651 73 322 3.0 8.0 0.00 0.00 0.00
20260507201146 73 66 3.0 4.0 0.00 0.00 0.00
20260507200641 74 30 2.0 7.0 0.00 0.00 0.00
20260507200137 75 308 2.0 7.0 0.00 0.00 0.00
20260507195632 75 66 1.0 8.0 0.00 0.00 0.00
20260507195124 73 6 2.0 9.0 0.00 0.00 0.00
20260507194620 72 35 3.0 8.0 0.00 0.00 0.00
20260507194115 73 14 1.0 10.0 0.00 0.00 0.00